START_TIME,STEP,MOV.,M34,t_acc.,L5,t_acc.,L18,t_acc.,L14,t_acc.
1979-07-15 12:00:24.920 ,0,0,0.,12.0,0.,12.0,0.,12.0,0.,12.0
1979-07-15 12:00:36.920 ,0,0,0.,12.0,0.,12.0,0.,12.0,0.,12.0
1979-07-15 12:00:48.920 ,1,1,0.,12.0,0.,12.0,0.,12.0,0.,12.0
1979-07-15 12:01:00.920 ,1,1,0.,12.0,0.,12.0,0.,12.0,0.,12.0
1979-07-15 12:01:12.920 ,1,0,0.,12.0,0.,12.0,0.,12.0,0.,12.0
1979-07-15 12:01:24.920 ,1,0,0.,12.0,0.,12.0,0.,12.0,0.,12.0
1979-07-15 12:01:36.920 ,2,1,0.,12.0,0.,12.0,0.,12.0,0.,12.0
1979-07-15 12:01:48.920 ,2,1,0.,12.0,0.,12.0,0.,12.0,0.,12.0
1979-07-15 12:02:00.920 ,2,0,0.,12.0,0.,12.0,0.,12.0,0.,12.0
1979-07-15 12:02:12.920 ,2,0,0.,12.0,0.,12.0,0.,12.0,0.,12.0
1979-07-15 12:02:24.920 ,3,1,0.,12.0,0.,12.0,0.,12.0,0.,12.0
1979-07-15 12:02:36.920 ,3,1,0.,12.0,0.,12.0,0.,12.0,0.,12.0
1979-07-15 12:02:48.920 ,3,0,0.,12.0,0.,12.0,0.,12.0,0.,12.0
1979-07-15 12:03:00.920 ,3,0,0.,12.0,0.,12.0,0.,12.0,0.,12.0
1979-07-15 12:03:12.920 ,4,1,0.,12.0,0.,12.0,0.,12.0,0.,12.0
1979-07-15 12:03:24.920 ,4,1,0.,12.0,0.,12.0,0.,12.0,0.,12.0
1979-07-15 12:03:36.920 ,4,0,0.,12.0,0.,12.0,0.,12.0,0.,12.0
1979-07-15 12:03:48.920 ,4,0,0.,12.0,0.,12.0,0.,12.0,0.,12.0
1979-07-15 12:04:00.920 ,5,1,0.,12.0,0.,12.0,0.,12.0,0.,12.0
1979-07-15 12:04:12.920 ,5,1,0.,12.0,0.,12.0,0.,12.0,0.,12.0
1979-07-15 12:04:24.920 ,5,0,0.,12.0,0.,12.0,0.,12.0,0.,12.0
1979-07-15 12:04:36.920 ,5,0,0.,12.0,0.,12.0,0.,12.0,0.,12.0
1979-07-15 12:04:48.920 ,6,1,0.,12.0,0.,12.0,0.,12.0,0.,12.0
1979-07-15 12:05:00.920 ,6,1,0.,12.0,0.,12.0,0.,12.0,0.,12.0
1979-07-15 12:05:12.920 ,6,0,0.,12.0,0.,12.0,0.,12.0,0.,12.0
1979-07-15 12:05:24.920 ,6,0,0.,12.0,0.,12.0,0.,12.0,0.,12.0
1979-07-15 12:05:36.920 ,7,1,0.,12.0,0.,12.0,0.,12.0,0.,12.0
1979-07-15 12:05:48.920 ,7,1,0.,12.0,0.,12.0,0.,12.0,0.,12.0
1979-07-15 12:06:00.920 ,7,0,0.,12.0,0.,12.0,0.,12.0,0.,12.0
1979-07-15 12:06:12.920 ,7,0,0.,12.0,0.,12.0,0.,12.0,0.,12.0
1979-07-15 12:06:24.920 ,7,1,0.,12.0,0.,12.0,0.,12.0,0.,12.0
1979-07-15 12:06:36.920 ,7,1,0.,12.0,0.,12.0,0.,12.0,0.,12.0
1979-07-15 12:06:48.920 ,7,0,0.,12.0,0.,12.0,0.,12.0,0.,12.0
1979-07-15 12:07:00.920 ,7,0,0.,12.0,0.,12.0,0.,12.0,0.,12.0
1979-07-15 12:07:12.920 ,6,1,0.,12.0,0.,12.0,0.,12.0,0.,12.0
1979-07-15 12:07:24.920 ,6,1,0.,12.0,0.,12.0,0.,12.0,0.,12.0
1979-07-15 12:07:36.920 ,6,0,0.,12.0,0.,12.0,0.,12.0,0.,12.0
1979-07-15 12:07:48.920 ,6,0,0.,12.0,0.,12.0,0.,12.0,0.,12.0
1979-07-15 12:07:36.920 ,6,0,0.,12.0,0.,12.0,0.,12.0,0.,12.0
1979-07-15 12:07:48.920 ,6,0,0.,12.0,0.,12.0,0.,12.0,0.,12.0
1979-07-15 12:08:00.920 ,5,1,0.,12.0,0.,12.0,0.,12.0,0.,12.0
1979-07-15 12:08:12.920 ,5,1,0.,12.0,0.,12.0,0.,12.0,0.,12.0
1979-07-15 12:08:24.920 ,5,0,0.,12.0,0.,12.0,0.,12.0,0.,12.0
1979-07-15 12:08:36.920 ,5,0,0.,12.0,0.,12.0,0.,12.0,0.,12.0
1979-07-15 12:08:48.920 ,4,1,0.,12.0,0.,12.0,0.,12.0,0.,12.0
1979-07-15 12:09:00.920 ,4,1,0.,12.0,0.,12.0,0.,12.0,0.,12.0
1979-07-15 12:09:12.920 ,4,0,0.,12.0,0.,12.0,0.,12.0,0.,12.0
1979-07-15 12:09:24.920 ,4,0,0.,12.0,0.,12.0,0.,12.0,0.,12.0
1979-07-15 12:09:36.920 ,3,1,0.,12.0,0.,12.0,0.,12.0,0.,12.0
1979-07-15 12:09:48.920 ,3,1,0.,12.0,0.,12.0,0.,12.0,0.,12.0
1979-07-15 12:10:00.920 ,3,0,0.,12.0,0.,12.0,0.,12.0,0.,12.0
1979-07-15 12:10:12.920 ,3,0,0.,12.0,0.,12.0,0.,12.0,0.,12.0
1979-07-15 12:10:24.920 ,2,1,0.,12.0,0.,12.0,0.,12.0,0.,12.0
1979-07-15 12:10:36.920 ,2,1,0.,12.0,0.,12.0,0.,12.0,0.,12.0
1979-07-15 12:10:48.920 ,2,0,0.,12.0,0.,12.0,0.,12.0,0.,12.0
1979-07-15 12:11:00.920 ,2,0,0.,12.0,0.,12.0,0.,12.0,0.,12.0
1979-07-15 12:11:12.920 ,1,1,0.,12.0,0.,12.0,0.,12.0,0.,12.0
1979-07-15 12:11:24.920 ,1,1,0.,12.0,0.,12.0,0.,12.0,0.,12.0
1979-07-15 12:11:36.920 ,1,0,0.,12.0,0.,12.0,0.,12.0,0.,12.0
1979-07-15 12:11:48.920 ,1,0,0.,12.0,0.,12.0,0.,12.0,0.,12.0
1979-07-15 12:12:00.920 ,0,1,0.,12.0,0.,12.0,0.,12.0,0.,12.0
1979-07-15 12:12:12.920 ,0,1,0.,12.0,0.,12.0,0.,12.0,0.,12.0
1979-07-15 12:12:24.920 ,0,0,0.,12.0,0.,12.0,0.,12.0,0.,12.0
1979-07-15 12:12:36.920 ,0,0,0.,12.0,0.,12.0,0.,12.0,0.,12.0
1979-07-15 12:12:48.920 ,0,1,0.,12.0,0.,12.0,0.,12.0,0.,12.0
1979-07-15 12:13:00.920 ,0,1,0.,12.0,0.,12.0,0.,12.0,0.,12.0
1979-07-15 12:13:12.920 ,0,0,0.,12.0,0.,12.0,0.,12.0,0.,12.0
1979-07-15 12:13:24.920 ,0,0,0.,12.0,0.,12.0,0.,12.0,0.,12.0
1979-07-15 12:13:36.920 ,1,1,0.,12.0,0.,12.0,0.,12.0,0.,12.0
1979-07-15 12:13:48.920 ,1,1,0.,12.0,0.,12.0,0.,12.0,0.,12.0
1979-07-15 12:14:00.920 ,1,0,0.,12.0,0.,12.0,0.,12.0,0.,12.0
1979-07-15 12:14:12.920 ,1,0,0.,12.0,0.,12.0,0.,12.0,0.,12.0
1979-07-15 12:14:24.920 ,2,1,0.,12.0,0.,12.0,0.,12.0,0.,12.0
1979-07-15 12:14:36.920 ,2,1,0.,12.0,0.,12.0,0.,12.0,0.,12.0
1979-07-15 12:14:48.920 ,2,0,0.,12.0,0.,12.0,0.,12.0,0.,12.0
1979-07-15 12:15:00.920 ,2,0,0.,12.0,0.,12.0,0.,12.0,0.,12.0
1979-07-15 12:15:12.920 ,3,1,0.,12.0,0.,12.0,0.,12.0,0.,12.0
1979-07-15 12:15:24.920 ,3,1,0.,12.0,0.,12.0,0.,12.0,0.,12.0
1979-07-15 12:15:36.920 ,3,0,0.,12.0,0.,12.0,0.,12.0,0.,12.0
1979-07-15 12:15:48.920 ,3,0,0.,12.0,0.,12.0,0.,12.0,0.,12.0
1979-07-15 12:16:00.920 ,4,1,0.,12.0,0.,12.0,0.,12.0,0.,12.0
1979-07-15 12:16:12.920 ,4,1,0.,12.0,0.,12.0,0.,12.0,0.,12.0
1979-07-15 12:16:24.920 ,4,0,0.,12.0,0.,12.0,0.,12.0,0.,12.0
1979-07-15 12:16:36.920 ,4,0,0.,12.0,0.,12.0,0.,12.0,0.,12.0
1979-07-15 12:16:48.920 ,5,1,0.,12.0,0.,12.0,0.,12.0,0.,12.0
1979-07-15 12:17:00.920 ,5,1,0.,12.0,0.,12.0,0.,12.0,0.,12.0
1979-07-15 12:17:12.920 ,5,0,0.,12.0,0.,12.0,0.,12.0,0.,12.0
1979-07-15 12:17:24.920 ,5,0,0.,12.0,0.,12.0,0.,12.0,0.,12.0
1979-07-15 12:17:36.920 ,6,1,0.,12.0,0.,12.0,0.,12.0,0.,12.0
1979-07-15 12:17:48.920 ,6,1,0.,12.0,0.,12.0,0.,12.0,0.,12.0
1979-07-15 12:18:00.920 ,6,0,0.,12.0,0.,12.0,0.,12.0,0.,12.0
1979-07-15 12:18:12.920 ,6,0,0.,12.0,0.,12.0,0.,12.0,0.,12.0
1979-07-15 12:18:24.920 ,7,0,0.,12.0,0.,12.0,0.,12.0,0.,12.0
1979-07-15 12:18:36.920 ,7,0,0.,12.0,0.,12.0,0.,12.0,0.,12.0
1979-07-15 12:18:48.920 ,7,0,0.,12.0,0.,12.0,0.,12.0,0.,12.0
1979-07-15 12:19:00.920 ,7,0,0.,12.0,0.,12.0,0.,12.0,0.,12.0
1979-07-15 12:19:12.920 ,4,1,0.,12.0,0.,12.0,0.,12.0,0.,12.0
1979-07-15 12:19:24.920 ,4,1,0.,12.0,0.,12.0,0.,12.0,0.,12.0
1979-07-15 12:19:36.920 ,0,1,0.,12.0,0.,12.0,0.,12.0,0.,12.0
1979-07-15 12:19:48.920 ,0,1,0.,12.0,0.,12.0,0.,12.0,0.,12.0
1979-07-15 12:20:00.920 ,3,1,0.,12.0,0.,12.0,0.,12.0,0.,12.0
1979-07-15 12:20:12.920 ,3,1,0.,12.0,0.,12.0,0.,12.0,0.,12.0
1979-07-15 12:20:24.920 ,7,1,0.,12.0,0.,12.0,0.,12.0,0.,12.0
1979-07-15 12:20:36.920 ,7,1,0.,12.0,0.,12.0,0.,12.0,0.,12.0
1979-07-15 12:20:48.920 ,4,1,0.,12.0,0.,12.0,0.,12.0,0.,12.0
1979-07-15 12:21:00.920 ,4,1,0.,12.0,0.,12.0,0.,12.0,0.,12.0
1979-07-15 12:21:12.920 ,0,1,0.,12.0,0.,12.0,0.,12.0,0.,12.0
1979-07-15 12:21:24.920 ,0,1,0.,12.0,0.,12.0,0.,12.0,0.,12.0
1979-07-15 12:21:36.920 ,3,1,0.,12.0,0.,12.0,0.,12.0,0.,12.0
1979-07-15 12:21:48.920 ,3,1,0.,12.0,0.,12.0,0.,12.0,0.,12.0
1979-07-15 12:22:00.920 ,7,1,0.,12.0,0.,12.0,0.,12.0,0.,12.0
1979-07-15 12:22:12.920 ,7,1,0.,12.0,0.,12.0,0.,12.0,0.,12.0
1979-07-15 12:22:24.920 ,0,0,0.,12.0,0.,12.0,0.,12.0,0.,12.0
1979-07-15 12:22:36.920 ,0,0,0.,12.0,0.,12.0,0.,12.0,0.,12.0
1979-07-15 12:22:48.920 ,0,1,0.,12.0,0.,12.0,0.,12.0,0.,12.0
1979-07-15 12:23:00.920 ,0,1,0.,12.0,0.,12.0,0.,12.0,0.,12.0
1979-07-15 12:23:12.920 ,3,1,0.,12.0,0.,12.0,0.,12.0,0.,12.0
1979-07-15 12:23:24.920 ,3,1,0.,12.0,0.,12.0,0.,12.0,0.,12.0
1979-07-15 12:23:36.920 ,7,1,0.,12.0,0.,12.0,0.,12.0,0.,12.0
1979-07-15 12:23:48.920 ,7,1,0.,12.0,0.,12.0,0.,12.0,0.,12.0
1979-07-15 12:24:00.920 ,4,1,0.,12.0,0.,12.0,0.,12.0,0.,12.0
1979-07-15 12:24:12.920 ,4,1,0.,12.0,0.,12.0,0.,12.0,0.,12.0
1979-07-15 12:24:24.920 ,0,1,0.,12.0,0.,12.0,0.,12.0,0.,12.0
1979-07-15 12:24:36.920 ,0,1,0.,12.0,0.,12.0,0.,12.0,0.,12.0
1979-07-15 12:24:48.920 ,3,1,0.,12.0,0.,12.0,0.,12.0,0.,12.0
1979-07-15 12:25:00.920 ,3,1,0.,12.0,0.,12.0,0.,12.0,0.,12.0
1979-07-15 12:25:12.920 ,7,1,0.,12.0,0.,12.0,0.,12.0,0.,12.0
1979-07-15 12:25:24.920 ,7,1,0.,12.0,0.,12.0,0.,12.0,0.,12.0
1979-07-15 12:25:36.920 ,4,1,0.,12.0,0.,12.0,0.,12.0,0.,12.0
1979-07-15 12:25:48.920 ,4,1,0.,12.0,0.,12.0,0.,12.0,0.,12.0
1979-07-15 12:26:00.920 ,0,1,0.,12.0,0.,12.0,0.,12.0,0.,12.0
1979-07-15 12:26:12.920 ,0,1,0.,12.0,0.,12.0,0.,12.0,0.,12.0
1979-07-15 12:26:24.920 ,3,1,0.,12.0,0.,12.0,0.,12.0,0.,12.0
1979-07-15 12:26:36.920 ,3,1,0.,12.0,0.,12.0,0.,12.0,0.,12.0
1979-07-15 12:26:48.920 ,7,1,0.,12.0,0.,12.0,0.,12.0,0.,12.0
1979-07-15 12:27:00.920 ,7,1,0.,12.0,0.,12.0,0.,12.0,0.,12.0
1979-07-15 12:27:12.920 ,4,1,0.,12.0,0.,12.0,0.,12.0,0.,12.0
1979-07-15 12:27:24.920 ,4,1,0.,12.0,0.,12.0,0.,12.0,0.,12.0
1979-07-15 12:27:36.920 ,0,1,0.,12.0,0.,12.0,0.,12.0,0.,12.0
1979-07-15 12:27:48.920 ,0,1,0.,12.0,0.,12.0,0.,12.0,0.,12.0
1979-07-15 12:28:00.920 ,3,1,0.,12.0,0.,12.0,0.,12.0,0.,12.0
1979-07-15 12:28:12.920 ,3,1,0.,12.0,0.,12.0,0.,12.0,0.,12.0
1979-07-15 12:28:24.920 ,7,1,0.,12.0,0.,12.0,0.,12.0,0.,12.0
1979-07-15 12:28:36.920 ,7,1,0.,12.0,0.,12.0,0.,12.0,0.,12.0
1979-07-15 12:28:48.920 ,4,1,0.,12.0,0.,12.0,0.,12.0,0.,12.0
1979-07-15 12:29:00.920 ,4,1,0.,12.0,0.,12.0,0.,12.0,0.,12.0
1979-07-15 12:29:12.920 ,0,1,0.,12.0,0.,12.0,0.,12.0,0.,12.0
1979-07-15 12:29:24.920 ,0,1,0.,12.0,0.,12.0,0.,12.0,0.,12.0
1979-07-15 12:29:36.920 ,0,0,0.,12.0,0.,12.0,0.,12.0,0.,12.0
1979-07-15 12:29:48.920 ,0,0,0.,12.0,0.,12.0,0.,12.0,0.,12.0
1979-07-15 12:30:00.920 ,0,0,0.,12.0,0.,12.0,0.,12.0,0.,12.0
1979-07-15 12:30:12.920 ,0,0,0.,12.0,0.,12.0,0.,12.0,0.,12.0
1979-07-15 12:30:24.920 ,5,1,0.,12.0,0.,12.0,0.,12.0,0.,12.0
1979-07-15 12:30:36.920 ,5,1,0.,12.0,0.,12.0,0.,12.0,0.,12.0
1979-07-15 12:30:48.920 ,5,0,0.,12.0,0.,12.0,0.,12.0,0.,12.0
1979-07-15 12:31:00.920 ,5,0,0.,12.0,0.,12.0,0.,12.0,0.,12.0
1979-07-15 12:31:12.920 ,4,1,0.,12.0,0.,12.0,0.,12.0,0.,12.0
1979-07-15 12:31:24.920 ,4,1,0.,12.0,0.,12.0,0.,12.0,0.,12.0
1979-07-15 12:31:36.920 ,4,0,0.,12.0,0.,12.0,0.,12.0,0.,12.0
1979-07-15 12:31:48.920 ,4,0,0.,12.0,0.,12.0,0.,12.0,0.,12.0
1979-07-15 12:32:00.920 ,3,1,0.,12.0,0.,12.0,0.,12.0,0.,12.0
1979-07-15 12:32:12.920 ,3,1,1.,12.0,0.,12.0,0.,12.0,0.,12.0
1979-07-15 12:32:24.920 ,3,0,0.,12.0,0.,12.0,0.,12.0,0.,12.0
1979-07-15 12:32:36.920 ,3,0,0.,12.0,0.,12.0,0.,12.0,0.,12.0
1979-07-15 12:32:48.920 ,2,1,0.,12.0,0.,12.0,0.,12.0,0.,12.0
1979-07-15 12:33:00.920 ,2,1,0.,12.0,0.,12.0,0.,12.0,0.,12.0
1979-07-15 12:33:12.920 ,2,0,0.,12.0,0.,12.0,0.,12.0,0.,12.0
1979-07-15 12:33:24.920 ,2,0,0.,12.0,0.,12.0,0.,12.0,0.,12.0
1979-07-15 12:33:36.920 ,1,1,0.,12.0,0.,12.0,0.,12.0,0.,12.0
1979-07-15 12:33:48.920 ,1,1,0.,12.0,0.,12.0,0.,12.0,0.,12.0
1979-07-15 12:34:00.920 ,1,0,0.,12.0,0.,12.0,0.,12.0,0.,12.0
1979-07-15 12:34:12.920 ,1,0,0.,12.0,0.,12.0,0.,12.0,0.,12.0
1979-07-15 12:34:24.920 ,0,1,0.,12.0,0.,12.0,0.,12.0,0.,12.0
1979-07-15 12:34:36.920 ,0,1,0.,12.0,0.,12.0,0.,12.0,0.,12.0
1979-07-15 12:34:48.920 ,0,0,0.,12.0,0.,12.0,0.,12.0,0.,12.0
1979-07-15 12:35:00.920 ,0,0,0.,12.0,0.,12.0,0.,12.0,0.,12.0
1979-07-15 12:35:12.920 ,0,1,0.,12.0,0.,12.0,0.,12.0,0.,12.0
1979-07-15 12:35:24.920 ,0,1,0.,12.0,0.,12.0,0.,12.0,0.,12.0
1979-07-15 12:35:36.920 ,0,0,0.,12.0,0.,12.0,0.,12.0,0.,12.0
1979-07-15 12:35:48.920 ,0,0,0.,12.0,0.,12.0,0.,12.0,0.,12.0
1979-07-15 12:36:00.920 ,1,1,0.,12.0,0.,12.0,0.,12.0,0.,12.0
1979-07-15 12:36:12.920 ,1,1,0.,12.0,0.,12.0,0.,12.0,0.,12.0
1979-07-15 12:36:24.920 ,1,0,0.,12.0,0.,12.0,0.,12.0,0.,12.0
1979-07-15 12:36:36.920 ,1,0,0.,12.0,0.,12.0,0.,12.0,0.,12.0
1979-07-15 12:36:48.920 ,2,1,0.,12.0,0.,12.0,0.,12.0,0.,12.0
1979-07-15 12:37:00.920 ,2,1,0.,12.0,0.,12.0,0.,12.0,0.,12.0
1979-07-15 12:37:12.920 ,2,0,0.,12.0,0.,12.0,0.,12.0,0.,12.0
1979-07-15 12:37:24.920 ,2,0,0.,12.0,0.,12.0,0.,12.0,0.,12.0
1979-07-15 12:37:36.920 ,3,1,0.,12.0,0.,12.0,0.,12.0,0.,12.0
1979-07-15 12:37:48.920 ,3,1,0.,12.0,0.,12.0,0.,12.0,0.,12.0
1979-07-15 12:38:00.920 ,3,0,0.,12.0,0.,12.0,0.,12.0,0.,12.0
1979-07-15 12:38:12.920 ,3,0,0.,12.0,0.,12.0,0.,12.0,0.,12.0
1979-07-15 12:38:24.920 ,4,1,0.,12.0,0.,12.0,0.,12.0,0.,12.0
1979-07-15 12:38:36.920 ,4,1,0.,12.0,0.,12.0,0.,12.0,0.,12.0
1979-07-15 12:38:48.920 ,4,0,0.,12.0,0.,12.0,0.,12.0,0.,12.0
1979-07-15 12:39:00.920 ,4,0,0.,12.0,0.,12.0,0.,12.0,0.,12.0
1979-07-15 12:39:12.920 ,5,1,0.,12.0,0.,12.0,0.,12.0,0.,12.0
1979-07-15 12:39:24.920 ,5,1,0.,12.0,0.,12.0,0.,12.0,0.,12.0
1979-07-15 12:39:36.920 ,5,0,0.,12.0,0.,12.0,0.,12.0,0.,12.0
1979-07-15 12:39:48.920 ,5,0,0.,12.0,0.,12.0,0.,12.0,0.,12.0
1979-07-15 12:40:00.920 ,6,1,0.,12.0,0.,12.0,0.,12.0,0.,12.0
1979-07-15 12:40:12.920 ,6,1,0.,12.0,0.,12.0,0.,12.0,0.,12.0
1979-07-15 12:40:24.920 ,6,0,0.,12.0,0.,12.0,0.,12.0,0.,12.0
1979-07-15 12:40:36.920 ,6,0,0.,12.0,0.,12.0,0.,12.0,0.,12.0
1979-07-15 12:40:48.920 ,7,1,0.,12.0,0.,12.0,0.,12.0,0.,12.0
1979-07-15 12:41:00.920 ,7,1,0.,12.0,0.,12.0,0.,12.0,0.,12.0
1979-07-15 12:41:12.920 ,7,0,0.,12.0,0.,12.0,0.,12.0,0.,12.0
1979-07-15 12:41:24.920 ,7,0,0.,12.0,0.,12.0,0.,12.0,0.,12.0
1979-07-15 12:41:36.920 ,7,1,0.,12.0,0.,12.0,0.,12.0,0.,12.0
1979-07-15 12:41:48.920 ,7,1,0.,12.0,0.,12.0,0.,12.0,0.,12.0
1979-07-15 12:42:00.920 ,7,0,0.,12.0,0.,12.0,0.,12.0,0.,12.0
1979-07-15 12:42:12.920 ,7,0,0.,12.0,0.,12.0,0.,12.0,0.,12.0
1979-07-15 12:42:24.920 ,6,1,0.,12.0,0.,12.0,0.,12.0,0.,12.0
1979-07-15 12:42:36.920 ,6,1,0.,12.0,0.,12.0,0.,12.0,0.,12.0
1979-07-15 12:42:48.920 ,6,0,0.,12.0,0.,12.0,0.,12.0,0.,12.0
1979-07-15 12:43:00.920 ,6,0,0.,12.0,0.,12.0,0.,12.0,0.,12.0
1979-07-15 12:43:12.920 ,5,1,0.,12.0,0.,12.0,0.,12.0,0.,12.0
1979-07-15 12:43:24.920 ,5,1,0.,12.0,0.,12.0,0.,12.0,0.,12.0
1979-07-15 12:43:36.920 ,5,0,0.,12.0,0.,12.0,0.,12.0,0.,12.0
1979-07-15 12:43:48.920 ,5,0,0.,12.0,0.,12.0,0.,12.0,0.,12.0
1979-07-15 12:44:00.920 ,4,1,0.,12.0,0.,12.0,0.,12.0,0.,12.0
1979-07-15 12:44:12.920 ,4,1,0.,12.0,0.,12.0,0.,12.0,0.,12.0
1979-07-15 12:44:24.920 ,4,0,0.,12.0,0.,12.0,0.,12.0,0.,12.0
1979-07-15 12:44:36.920 ,4,0,0.,12.0,0.,12.0,0.,12.0,0.,12.0
1979-07-15 12:44:48.920 ,3,1,0.,12.0,0.,12.0,0.,12.0,0.,12.0
1979-07-15 12:45:00.920 ,3,1,0.,12.0,0.,12.0,0.,12.0,0.,12.0
1979-07-15 12:45:12.920 ,3,0,0.,12.0,0.,12.0,0.,12.0,0.,12.0
1979-07-15 12:45:24.920 ,3,0,0.,12.0,0.,12.0,0.,12.0,0.,12.0
1979-07-15 12:45:36.920 ,2,1,0.,12.0,0.,12.0,0.,12.0,0.,12.0
1979-07-15 12:45:48.920 ,2,1,0.,12.0,0.,12.0,0.,12.0,0.,12.0
1979-07-15 12:46:00.920 ,2,0,0.,12.0,0.,12.0,0.,12.0,0.,12.0
1979-07-15 12:46:12.920 ,2,0,0.,12.0,0.,12.0,0.,12.0,0.,12.0
1979-07-15 12:46:24.920 ,1,1,0.,12.0,0.,12.0,0.,12.0,0.,12.0
1979-07-15 12:46:36.920 ,1,1,0.,12.0,0.,12.0,0.,12.0,0.,12.0
1979-07-15 12:46:48.920 ,1,0,0.,12.0,0.,12.0,0.,12.0,0.,12.0
1979-07-15 12:47:00.920 ,1,0,0.,12.0,0.,12.0,0.,12.0,0.,12.0
1979-07-15 12:47:12.920 ,0,1,0.,12.0,0.,12.0,0.,12.0,0.,12.0
1979-07-15 12:47:24.920 ,0,1,0.,12.0,0.,12.0,0.,12.0,0.,12.0
1979-07-15 12:47:36.920 ,0,0,0.,12.0,0.,12.0,0.,12.0,0.,12.0
1979-07-15 12:47:48.920 ,0,0,0.,12.0,0.,12.0,0.,12.0,0.,12.0
1979-07-15 12:48:00.920 ,0,1,0.,12.0,0.,12.0,0.,12.0,0.,12.0
1979-07-15 12:48:12.920 ,0,1,0.,12.0,0.,12.0,0.,12.0,0.,12.0
1979-07-15 12:48:24.920 ,0,0,0.,12.0,0.,12.0,0.,12.0,0.,12.0
1979-07-15 12:48:36.920 ,0,0,0.,12.0,0.,12.0,0.,12.0,0.,12.0
1979-07-15 12:48:48.920 ,1,1,0.,12.0,0.,12.0,0.,12.0,0.,12.0
1979-07-15 12:49:00.920 ,1,1,0.,12.0,0.,12.0,0.,12.0,0.,12.0
1979-07-15 12:49:12.920 ,1,0,0.,12.0,0.,12.0,0.,12.0,0.,12.0
1979-07-15 12:49:24.920 ,1,0,0.,12.0,0.,12.0,0.,12.0,0.,12.0
1979-07-15 12:49:36.920 ,2,1,0.,12.0,0.,12.0,0.,12.0,0.,12.0
1979-07-15 12:49:48.920 ,2,1,0.,12.0,0.,12.0,0.,12.0,0.,12.0
1979-07-15 12:50:00.920 ,2,0,0.,12.0,0.,12.0,0.,12.0,0.,12.0
1979-07-15 12:50:12.920 ,2,0,0.,12.0,0.,12.0,0.,12.0,0.,12.0
1979-07-15 12:50:24.920 ,3,1,0.,12.0,0.,12.0,0.,12.0,0.,12.0
1979-07-15 12:50:36.920 ,3,1,0.,12.0,0.,12.0,0.,12.0,0.,12.0
1979-07-15 12:50:48.920 ,3,0,0.,12.0,0.,12.0,0.,12.0,0.,12.0
1979-07-15 12:51:00.920 ,3,0,0.,12.0,0.,12.0,0.,12.0,0.,12.0
1979-07-15 12:51:12.920 ,4,1,0.,12.0,0.,12.0,0.,12.0,0.,12.0
1979-07-15 12:51:24.920 ,4,1,0.,12.0,0.,12.0,0.,12.0,0.,12.0
1979-07-15 12:51:36.920 ,4,0,0.,12.0,0.,12.0,0.,12.0,0.,12.0
1979-07-15 12:51:48.920 ,4,0,0.,12.0,0.,12.0,0.,12.0,0.,12.0
1979-07-15 12:52:00.920 ,5,1,0.,12.0,0.,12.0,0.,12.0,0.,12.0
1979-07-15 12:52:12.920 ,5,1,0.,12.0,0.,12.0,0.,12.0,0.,12.0
1979-07-15 12:52:24.920 ,5,0,0.,12.0,0.,12.0,0.,12.0,0.,12.0
1979-07-15 12:52:36.920 ,5,0,0.,12.0,0.,12.0,0.,12.0,0.,12.0
1979-07-15 12:52:48.920 ,6,1,0.,12.0,0.,12.0,0.,12.0,0.,12.0
1979-07-15 12:53:00.920 ,6,1,0.,12.0,0.,12.0,0.,12.0,0.,12.0
1979-07-15 12:53:12.920 ,6,0,0.,12.0,0.,12.0,0.,12.0,0.,12.0
1979-07-15 12:53:24.920 ,6,0,0.,12.0,0.,12.0,0.,12.0,0.,12.0
1979-07-15 12:53:36.920 ,7,1,0.,12.0,0.,12.0,0.,12.0,0.,12.0
1979-07-15 12:53:48.920 ,7,1,0.,12.0,0.,12.0,0.,12.0,0.,12.0
1979-07-15 12:54:00.920 ,7,0,0.,12.0,0.,12.0,0.,12.0,0.,12.0
1979-07-15 12:54:12.920 ,7,0,0.,12.0,0.,12.0,0.,12.0,0.,12.0
1979-07-15 12:54:24.920 ,7,1,0.,12.0,0.,12.0,0.,12.0,0.,12.0
1979-07-15 12:54:36.920 ,7,1,0.,12.0,0.,12.0,0.,12.0,0.,12.0
1979-07-15 12:54:48.920 ,7,0,0.,12.0,0.,12.0,0.,12.0,0.,12.0
1979-07-15 12:55:00.920 ,7,0,0.,12.0,0.,12.0,0.,12.0,0.,12.0
1979-07-15 12:55:12.920 ,6,1,0.,12.0,0.,12.0,0.,12.0,0.,12.0
1979-07-15 12:55:24.920 ,6,1,0.,12.0,0.,12.0,0.,12.0,0.,12.0
1979-07-15 12:55:36.920 ,6,0,0.,12.0,0.,12.0,0.,12.0,0.,12.0
1979-07-15 12:55:48.920 ,6,0,0.,12.0,0.,12.0,0.,12.0,0.,12.0
1979-07-15 12:56:00.920 ,5,1,0.,12.0,0.,12.0,0.,12.0,0.,12.0
1979-07-15 12:56:12.920 ,5,1,0.,12.0,0.,12.0,0.,12.0,0.,12.0
1979-07-15 12:56:24.920 ,5,0,0.,12.0,0.,12.0,0.,12.0,0.,12.0
1979-07-15 12:56:36.920 ,5,0,0.,12.0,0.,12.0,0.,12.0,0.,12.0
1979-07-15 12:56:48.920 ,4,1,0.,12.0,0.,12.0,0.,12.0,0.,12.0
1979-07-15 12:57:00.920 ,4,1,1.,12.0,0.,12.0,0.,12.0,0.,12.0
1979-07-15 12:57:12.920 ,4,0,0.,12.0,0.,12.0,0.,12.0,0.,12.0
1979-07-15 12:57:24.920 ,4,0,0.,12.0,0.,12.0,0.,12.0,0.,12.0
1979-07-15 12:57:36.920 ,3,1,0.,12.0,0.,12.0,0.,12.0,0.,12.0
1979-07-15 12:57:48.920 ,3,1,0.,12.0,0.,12.0,0.,12.0,0.,12.0
1979-07-15 12:58:00.920 ,3,0,0.,12.0,0.,12.0,0.,12.0,0.,12.0
1979-07-15 12:58:12.920 ,3,0,0.,12.0,0.,12.0,0.,12.0,0.,12.0
1979-07-15 12:58:24.920 ,2,1,0.,12.0,0.,12.0,0.,12.0,0.,12.0
1979-07-15 12:58:36.920 ,2,1,0.,12.0,0.,12.0,0.,12.0,0.,12.0
1979-07-15 12:58:48.920 ,2,0,0.,12.0,0.,12.0,0.,12.0,0.,12.0
1979-07-15 12:59:00.920 ,2,0,0.,12.0,0.,12.0,0.,12.0,0.,12.0
1979-07-15 12:59:12.920 ,1,1,0.,12.0,0.,12.0,0.,12.0,0.,12.0
1979-07-15 12:59:24.920 ,1,1,0.,12.0,0.,12.0,0.,12.0,0.,12.0
1979-07-15 12:59:36.920 ,1,0,0.,12.0,0.,12.0,0.,12.0,0.,12.0
1979-07-15 12:59:48.920 ,1,0,0.,12.0,0.,12.0,0.,12.0,0.,12.0
1979-07-15 13:00:00.920 ,0,1,0.,12.0,0.,12.0,0.,12.0,0.,12.0
1979-07-15 13:00:12.920 ,0,1,0.,12.0,0.,12.0,0.,12.0,0.,12.0
1979-07-15 13:00:24.920 ,0,0,0.,12.0,0.,12.0,0.,12.0,0.,12.0
1979-07-15 13:00:36.920 ,0,0,0.,12.0,0.,12.0,0.,12.0,0.,12.0
1979-07-15 13:00:48.920 ,0,1,0.,12.0,0.,12.0,0.,12.0,0.,12.0
1979-07-15 13:01:00.920 ,0,1,0.,12.0,0.,12.0,0.,12.0,0.,12.0
1979-07-15 13:01:12.920 ,0,0,0.,12.0,0.,12.0,0.,12.0,0.,12.0
1979-07-15 13:01:24.920 ,0,0,0.,12.0,0.,12.0,0.,12.0,0.,12.0
1979-07-15 13:01:36.920 ,1,1,0.,12.0,0.,12.0,0.,12.0,0.,12.0
1979-07-15 13:01:48.920 ,1,1,0.,12.0,0.,12.0,0.,12.0,0.,12.0
1979-07-15 13:02:00.920 ,1,0,0.,12.0,0.,12.0,0.,12.0,0.,12.0
1979-07-15 13:02:12.920 ,1,0,0.,12.0,0.,12.0,0.,12.0,0.,12.0
1979-07-15 13:02:24.920 ,2,1,0.,12.0,0.,12.0,0.,12.0,0.,12.0
1979-07-15 13:02:36.920 ,2,1,0.,12.0,0.,12.0,0.,12.0,0.,12.0
1979-07-15 13:02:48.920 ,0,0,0.,12.0,0.,12.0,0.,12.0,0.,12.0
1979-07-15 13:03:00.920 ,0,0,0.,12.0,0.,12.0,0.,12.0,0.,12.0
1979-07-15 13:03:22.520 ,0,0,,0,,0,,0,,0
1979-07-15 13:03:34.520 ,0,0,0.,12.0,0.,12.0,0.,12.0,0.,12.0
1979-07-15 13:03:36.920 ,0,0,0.,12.0,0.,12.0,0.,12.0,0.,12.0
1979-07-15 13:03:48.920 ,0,0,0.,12.0,0.,12.0,0.,12.0,0.,12.0
1979-07-15 13:04:00.920 ,4,1,0.,12.0,0.,12.0,0.,12.0,0.,12.0
1979-07-15 13:04:12.920 ,4,1,0.,12.0,0.,12.0,0.,12.0,0.,12.0
1979-07-15 13:04:24.920 ,4,0,0.,12.0,0.,12.0,0.,12.0,0.,12.0
1979-07-15 13:04:36.920 ,4,0,0.,12.0,0.,12.0,0.,12.0,0.,12.0
1979-07-15 13:04:48.920 ,5,1,0.,12.0,0.,12.0,0.,12.0,0.,12.0
1979-07-15 13:05:00.920 ,5,1,0.,12.0,0.,12.0,0.,12.0,0.,12.0
1979-07-15 13:05:12.920 ,5,0,0.,12.0,0.,12.0,0.,12.0,0.,12.0
1979-07-15 13:05:24.920 ,5,0,0.,12.0,0.,12.0,0.,12.0,0.,12.0
1979-07-15 13:05:36.920 ,6,1,0.,12.0,0.,12.0,0.,12.0,0.,12.0
1979-07-15 13:05:48.920 ,6,1,0.,12.0,0.,12.0,0.,12.0,0.,12.0
1979-07-15 13:06:00.920 ,6,0,0.,12.0,0.,12.0,0.,12.0,0.,12.0
1979-07-15 13:06:12.920 ,6,0,0.,12.0,0.,12.0,0.,12.0,0.,12.0
1979-07-15 13:06:24.920 ,7,0,0.,12.0,0.,12.0,0.,12.0,0.,12.0
1979-07-15 13:06:36.920 ,7,0,0.,12.0,0.,12.0,0.,12.0,0.,12.0
1979-07-15 13:06:48.920 ,7,0,0.,12.0,0.,12.0,0.,12.0,0.,12.0
1979-07-15 13:07:00.920 ,7,0,0.,12.0,0.,12.0,0.,12.0,0.,12.0
1979-07-15 13:07:12.920 ,4,1,0.,12.0,0.,12.0,0.,12.0,0.,12.0
1979-07-15 13:07:24.920 ,4,1,0.,12.0,0.,12.0,0.,12.0,0.,12.0
1979-07-15 13:07:36.920 ,0,1,0.,12.0,0.,12.0,0.,12.0,0.,12.0
1979-07-15 13:07:48.920 ,0,1,0.,12.0,0.,12.0,0.,12.0,0.,12.0
1979-07-15 13:08:00.920 ,3,1,0.,12.0,0.,12.0,0.,12.0,0.,12.0
1979-07-15 13:08:12.920 ,3,1,0.,12.0,0.,12.0,0.,12.0,0.,12.0
1979-07-15 13:08:24.920 ,7,1,0.,12.0,0.,12.0,0.,12.0,0.,12.0
1979-07-15 13:08:36.920 ,7,1,0.,12.0,0.,12.0,0.,12.0,0.,12.0
1979-07-15 13:08:48.920 ,4,1,0.,12.0,0.,12.0,0.,12.0,0.,12.0
1979-07-15 13:09:00.920 ,4,1,0.,12.0,0.,12.0,0.,12.0,0.,12.0
1979-07-15 13:09:12.920 ,0,1,0.,12.0,0.,12.0,0.,12.0,0.,12.0
1979-07-15 13:09:24.920 ,0,1,0.,12.0,0.,12.0,0.,12.0,0.,12.0
1979-07-15 13:09:36.920 ,3,1,0.,12.0,0.,12.0,0.,12.0,0.,12.0
1979-07-15 13:09:48.920 ,3,1,0.,12.0,0.,12.0,0.,12.0,0.,12.0
1979-07-15 13:10:00.920 ,7,1,0.,12.0,0.,12.0,0.,12.0,0.,12.0
1979-07-15 13:10:12.920 ,7,1,0.,12.0,0.,12.0,0.,12.0,0.,12.0
1979-07-15 13:10:24.920 ,4,1,0.,12.0,0.,12.0,0.,12.0,0.,12.0
1979-07-15 13:10:36.920 ,4,1,0.,12.0,0.,12.0,0.,12.0,0.,12.0
1979-07-15 13:10:48.920 ,0,1,0.,12.0,0.,12.0,0.,12.0,0.,12.0
1979-07-15 13:11:00.920 ,0,1,0.,12.0,0.,12.0,0.,12.0,0.,12.0
1979-07-15 13:11:12.920 ,3,1,0.,12.0,0.,12.0,0.,12.0,0.,12.0
1979-07-15 13:11:24.920 ,3,1,0.,12.0,0.,12.0,0.,12.0,0.,12.0
1979-07-15 13:11:36.920 ,7,1,0.,12.0,0.,12.0,0.,12.0,0.,12.0
1979-07-15 13:11:48.920 ,7,1,0.,12.0,0.,12.0,0.,12.0,0.,12.0
1979-07-15 13:12:00.920 ,4,1,0.,12.0,0.,12.0,0.,12.0,0.,12.0
1979-07-15 13:12:12.920 ,4,1,0.,12.0,0.,12.0,0.,12.0,0.,12.0
1979-07-15 13:12:24.920 ,0,1,0.,12.0,0.,12.0,0.,12.0,0.,12.0
1979-07-15 13:12:36.920 ,0,1,0.,12.0,0.,12.0,0.,12.0,0.,12.0
1979-07-15 13:12:48.920 ,3,1,0.,12.0,0.,12.0,0.,12.0,0.,12.0
1979-07-15 13:13:00.920 ,3,1,0.,12.0,0.,12.0,0.,12.0,0.,12.0
1979-07-15 13:13:12.920 ,7,1,0.,12.0,0.,12.0,0.,12.0,0.,12.0
1979-07-15 13:13:24.920 ,7,1,0.,12.0,0.,12.0,0.,12.0,0.,12.0
1979-07-15 13:13:36.920 ,4,1,0.,12.0,0.,12.0,0.,12.0,0.,12.0
1979-07-15 13:13:48.920 ,4,1,0.,12.0,0.,12.0,0.,12.0,0.,12.0
1979-07-15 13:14:00.920 ,0,1,0.,12.0,0.,12.0,0.,12.0,0.,12.0
1979-07-15 13:14:12.920 ,0,1,0.,12.0,0.,12.0,0.,12.0,0.,12.0
1979-07-15 13:14:26.120 ,3,1,0.,12.0,0.,12.0,0.,12.0,0.,12.0
1979-07-15 13:14:38.120 ,3,1,0.,12.0,0.,12.0,0.,12.0,0.,12.0
1979-07-15 13:14:48.920 ,7,1,0.,12.0,0.,12.0,0.,12.0,0.,12.0
1979-07-15 13:15:00.920 ,7,1,0.,12.0,0.,12.0,0.,12.0,0.,12.0
1979-07-15 13:15:12.920 ,4,1,0.,12.0,0.,12.0,0.,12.0,0.,12.0
1979-07-15 13:15:24.920 ,4,1,0.,12.0,0.,12.0,0.,12.0,0.,12.0
1979-07-15 13:15:36.920 ,0,1,0.,12.0,0.,12.0,0.,12.0,0.,12.0
1979-07-15 13:15:48.920 ,0,1,0.,12.0,0.,12.0,0.,12.0,0.,12.0
1979-07-15 13:16:00.920 ,3,1,0.,12.0,0.,12.0,0.,12.0,0.,12.0
1979-07-15 13:16:12.920 ,3,1,0.,12.0,0.,12.0,0.,12.0,0.,12.0
1979-07-15 13:16:24.920 ,7,1,0.,12.0,0.,12.0,0.,12.0,0.,12.0
1979-07-15 13:16:36.920 ,7,1,0.,12.0,0.,12.0,0.,12.0,0.,12.0
1979-07-15 13:16:48.920 ,4,1,0.,12.0,0.,12.0,0.,12.0,0.,12.0
1979-07-15 13:17:00.920 ,4,1,0.,12.0,0.,12.0,0.,12.0,0.,12.0